• In Belarus
  • List of Countries
  • For 7 days
  • Water Temperature
  • Weather Map
  • Weather Widgets
  • user-avatar
    Login

    Hourly Weather Armawir

    Today, 4 June, Thursday

    Time Temperature Precipitation Wind Pressure Humidity
    00:00 +19°C° 0.1 mm 1 mps 684 mmHg 57%
    01:00 +19°C° 0 mm 1 mps 684 mmHg 59%
    02:00 +18°C° 0 mm 1 mps 684 mmHg 61%
    03:00 +18°C° 0 mm 1 mps 684 mmHg 60%
    04:00 +19°C° 0 mm 1 mps 684 mmHg 58%
    05:00 +20°C° 0 mm 1 mps 685 mmHg 57%
    06:00 +20°C° 0 mm 1 mps 685 mmHg 55%
    07:00 +22°C° 0 mm 1 mps 685 mmHg 48%
    08:00 +24°C° 0 mm 2 mps 685 mmHg 41%
    09:00 +26°C° 0 mm 2 mps 685 mmHg 34%
    10:00 +27°C° 0 mm 2 mps 686 mmHg 31%
    11:00 +29°C° 0 mm 1 mps 686 mmHg 29%
    12:00 +30°C° 0 mm 1 mps 686 mmHg 26%
    13:00 +30°C° 0 mm 1 mps 686 mmHg 25%
    14:00 +31°C° 0 mm 2 mps 686 mmHg 24%
    15:00 +32°C° 0 mm 2 mps 686 mmHg 23%
    16:00 +30°C° 0 mm 3 mps 686 mmHg 25%
    17:00 +29°C° 0 mm 5 mps 686 mmHg 27%
    18:00 +28°C° 0 mm 6 mps 686 mmHg 29%
    19:00 +26°C° 0 mm 5 mps 687 mmHg 32%
    20:00 +23°C° 0 mm 4 mps 687 mmHg 34%
    21:00 +21°C° 0 mm 3 mps 687 mmHg 36%
    22:00 +20°C° 0 mm 3 mps 687 mmHg 38%
    23:00 +20°C° 0 mm 3 mps 688 mmHg 40%

    Tomorrow, 5 June, Friday

    Time Temperature Precipitation Wind Pressure Humidity
    00:00 +19°C° 0 mm 3 mps 688 mmHg 42%
    01:00 +18°C° 0 mm 2 mps 688 mmHg 43%
    02:00 +18°C° 0 mm 2 mps 688 mmHg 44%
    03:00 +17°C° 0 mm 2 mps 688 mmHg 45%
    04:00 +18°C° 0 mm 2 mps 688 mmHg 46%
    05:00 +19°C° 0 mm 2 mps 689 mmHg 47%
    06:00 +20°C° 0 mm 1 mps 689 mmHg 48%
    07:00 +21°C° 0 mm 2 mps 689 mmHg 43%
    08:00 +24°C° 0 mm 2 mps 689 mmHg 37%
    09:00 +26°C° 0 mm 2 mps 689 mmHg 31%
    10:00 +27°C° 0 mm 2 mps 689 mmHg 29%
    11:00 +28°C° 0 mm 2 mps 689 mmHg 26%
    12:00 +29°C° 0 mm 2 mps 689 mmHg 23%
    13:00 +29°C° 0 mm 3 mps 689 mmHg 23%
    14:00 +30°C° 0 mm 3 mps 689 mmHg 23%
    15:00 +30°C° 0 mm 3 mps 689 mmHg 23%
    16:00 +29°C° 0 mm 3 mps 689 mmHg 25%
    17:00 +29°C° 0 mm 2 mps 689 mmHg 26%
    18:00 +29°C° 0 mm 2 mps 689 mmHg 28%
    19:00 +26°C° 0 mm 2 mps 689 mmHg 32%
    20:00 +24°C° 0 mm 2 mps 689 mmHg 37%
    21:00 +20°C° 0 mm 2 mps 690 mmHg 42%
    22:00 +20°C° 0 mm 2 mps 690 mmHg 43%
    23:00 +19°C° 0 mm 2 mps 690 mmHg 44%

    Day after tomorrow, 6 June, Saturday

    Time Temperature Precipitation Wind Pressure Humidity
    00:00 +18°C° 0 mm 2 mps 690 mmHg 45%
    01:00 +18°C° 0 mm 2 mps 689 mmHg 47%
    02:00 +17°C° 0 mm 2 mps 689 mmHg 48%
    03:00 +17°C° 0 mm 2 mps 689 mmHg 50%
    04:00 +17°C° 0 mm 2 mps 690 mmHg 50%
    05:00 +18°C° 0 mm 2 mps 690 mmHg 50%
    06:00 +19°C° 0 mm 2 mps 690 mmHg 50%
    07:00 +21°C° 0 mm 2 mps 690 mmHg 45%
    08:00 +24°C° 0 mm 2 mps 690 mmHg 40%
    09:00 +26°C° 0 mm 2 mps 691 mmHg 36%
    10:00 +27°C° 0 mm 1 mps 691 mmHg 32%
    11:00 +28°C° 0 mm 1 mps 691 mmHg 29%
    12:00 +30°C° 0 mm 1 mps 691 mmHg 26%
    13:00 +30°C° 0.1 mm 1 mps 690 mmHg 24%
    14:00 +30°C° 0.1 mm 1 mps 690 mmHg 22%
    15:00 +31°C° 0.1 mm 1 mps 690 mmHg 21%
    16:00 +30°C° 0 mm 2 mps 690 mmHg 24%
    17:00 +29°C° 0 mm 4 mps 690 mmHg 28%
    18:00 +28°C° 0 mm 5 mps 690 mmHg 31%
    19:00 +26°C° 0 mm 5 mps 690 mmHg 38%
    20:00 +23°C° 0 mm 4 mps 690 mmHg 44%
    21:00 +20°C° 0 mm 4 mps 691 mmHg 51%
    22:00 +19°C° 0 mm 3 mps 690 mmHg 53%
    23:00 +19°C° 0 mm 2 mps 690 mmHg 56%

    7 June, Sunday

    Time Temperature Precipitation Wind Pressure Humidity
    00:00 +19°C° 0 mm 1 mps 690 mmHg 59%
    01:00 +18°C° 0 mm 1 mps 690 mmHg 62%
    02:00 +16°C° 0 mm 1 mps 690 mmHg 64%
    03:00 +16°C° 0 mm 1 mps 689 mmHg 66%
    04:00 +18°C° 0 mm 1 mps 690 mmHg 63%
    05:00 +19°C° 0 mm 1 mps 690 mmHg 60%
    06:00 +19°C° 0 mm 1 mps 690 mmHg 57%
    07:00 +21°C° 0 mm 1 mps 690 mmHg 52%
    08:00 +23°C° 0 mm 1 mps 690 mmHg 47%
    09:00 +24°C° 0 mm 1 mps 690 mmHg 43%
    10:00 +26°C° 0 mm 1 mps 690 mmHg 39%
    11:00 +27°C° 0 mm 1 mps 690 mmHg 36%
    12:00 +28°C° 0 mm 1 mps 690 mmHg 32%
    13:00 +29°C° 0 mm 1 mps 690 mmHg 31%
    14:00 +30°C° 0 mm 1 mps 690 mmHg 29%
    15:00 +30°C° 0 mm 1 mps 689 mmHg 28%
    16:00 +30°C° 0 mm 2 mps 689 mmHg 29%
    17:00 +30°C° 0 mm 2 mps 689 mmHg 30%
    18:00 +30°C° 0 mm 2 mps 689 mmHg 31%
    19:00 +27°C° 0 mm 2 mps 689 mmHg 38%
    20:00 +25°C° 0 mm 2 mps 689 mmHg 45%
    21:00 +21°C° 0 mm 2 mps 689 mmHg 52%
    22:00 +21°C° 0 mm 2 mps 689 mmHg 55%
    23:00 +21°C° 0 mm 1 mps 689 mmHg 57%

    8 June, Monday

    Time Temperature Precipitation Wind Pressure Humidity
    00:00 +20°C° 0 mm 1 mps 689 mmHg 59%
    01:00 +20°C° 0 mm 1 mps 689 mmHg 62%
    02:00 +19°C° 0 mm 1 mps 688 mmHg 64%
    03:00 +19°C° 0 mm 1 mps 688 mmHg 66%
    04:00 +20°C° 0 mm 1 mps 688 mmHg 64%
    05:00 +20°C° 0 mm 1 mps 688 mmHg 62%
    06:00 +21°C° 0 mm 1 mps 689 mmHg 60%
    07:00 +23°C° 0 mm 1 mps 689 mmHg 55%
    08:00 +24°C° 0 mm 1 mps 689 mmHg 50%
    09:00 +26°C° 0 mm 2 mps 689 mmHg 44%
    10:00 +27°C° 0 mm 2 mps 688 mmHg 40%
    11:00 +29°C° 0 mm 2 mps 688 mmHg 37%
    12:00 +30°C° 0 mm 2 mps 688 mmHg 33%
    13:00 +31°C° 0 mm 2 mps 688 mmHg 30%
    14:00 +31°C° 0 mm 2 mps 688 mmHg 28%
    15:00 +32°C° 0 mm 2 mps 688 mmHg 25%
    16:00 +32°C° 0 mm 2 mps 687 mmHg 27%
    17:00 +31°C° 0 mm 2 mps 687 mmHg 28%
    18:00 +31°C° 0 mm 2 mps 687 mmHg 29%
    19:00 +29°C° 0 mm 2 mps 687 mmHg 35%
    20:00 +26°C° 0 mm 2 mps 687 mmHg 40%
    21:00 +24°C° 0 mm 2 mps 687 mmHg 46%
    22:00 +23°C° 0 mm 2 mps 687 mmHg 50%
    23:00 +21°C° 0 mm 2 mps 687 mmHg 54%

    9 June, Tuesday

    Time Temperature Precipitation Wind Pressure Humidity
    00:00 +20°C° 0 mm 2 mps 687 mmHg 59%
    01:00 +21°C° 0 mm 1 mps 687 mmHg 61%
    02:00 +20°C° 0 mm 1 mps 687 mmHg 63%
    03:00 +20°C° 0 mm 1 mps 687 mmHg 65%
    04:00 +21°C° 0 mm 1 mps 687 mmHg 63%
    05:00 +21°C° 0 mm 1 mps 688 mmHg 62%
    06:00 +22°C° 0 mm 1 mps 688 mmHg 61%
    07:00 +24°C° 0 mm 1 mps 688 mmHg 55%
    08:00 +25°C° 0 mm 2 mps 688 mmHg 48%
    09:00 +27°C° 0 mm 2 mps 688 mmHg 41%
    10:00 +28°C° 0 mm 2 mps 688 mmHg 37%
    11:00 +30°C° 0 mm 2 mps 688 mmHg 33%
    12:00 +31°C° 0 mm 3 mps 689 mmHg 29%
    13:00 +33°C° 0 mm 3 mps 688 mmHg 26%
    14:00 +34°C° 0 mm 3 mps 688 mmHg 24%
    15:00 +34°C° 0 mm 3 mps 688 mmHg 21%
    16:00 +33°C° 0 mm 4 mps 688 mmHg 26%
    17:00 +32°C° 0 mm 4 mps 688 mmHg 31%
    18:00 +29°C° 0 mm 5 mps 688 mmHg 36%
    19:00 +27°C° 0 mm 4 mps 689 mmHg 41%
    20:00 +25°C° 0 mm 3 mps 689 mmHg 46%
    21:00 +21°C° 0 mm 2 mps 689 mmHg 51%
    22:00 +21°C° 0 mm 2 mps 689 mmHg 53%
    23:00 +20°C° 0 mm 2 mps 688 mmHg 56%
    Show more